Albion, NE

7:07 PM CDT on September 15, 2019 (GMT -0500)
Albion Municipal

Weather History for KBVN - August, 2019

Change the Weather History Date:

Saturday, August 24, 2019

  Actual Average (WUND) Record (WUND)
Temperature  
Mean Temperature 68 °F -  
Max Temperature 70 °F - - (-1)
Min Temperature 66 °F - - (-1)
Cooling Degree Days 2    
Growing Degree Days 18 (Base 50)    
Moisture  
Dew Point 66 °F    
Average Humidity 93    
Maximum Humidity 99    
Minimum Humidity 83    
Precipitation  
Precipitation 0.23 in - - ()
Sea Level Pressure  
Sea Level Pressure 30.05 in    
Wind  
Wind Speed 10 mph (SE)    
Max Wind Speed 17 mph    
Max Gust Speed 28 mph    
Visibility 8 miles    
Events Rain    
Averages and records for this station are not official NWS values.
T = Trace of Precipitation, MM = Missing Value Source: NWS Daily Summary

Daily Weather History Graph

Daily Weather History Graph

Search for Another Location

Airport or City:

Astronomy

Aug. 24, 2019 Rise Set
Actual Time 6:49 AM CDT 8:18 PM CDT
Civil Twilight 6:20 AM CDT 8:47 PM CDT
Nautical Twilight 5:45 AM CDT 9:22 PM CDT
Astronomical Twilight 5:07 AM CDT 10:00 PM CDT
Moon 12:42 AM CDT (8/24) 3:38 PM CDT (8/24)
Length of Visible Light 14h 27m
Length of Day
13h 29m
Last Quarter, 39% of the Moon is Illuminated
Aug 24
Last Quarter
Aug 30
New
Sep 5
First Quarter
Sep 13
Full
Sep 21
Last Quarter

Hourly Weather History & Observations

Time (CDT) Temp. Dew Point Humidity Pressure Visibility Wind Dir Wind Speed Gust Speed Precip Events Conditions
12:15 AM 68.9 °F 66.4 °F 92% 30.11 in 10.0 mi SE 8.1 mph - N/A   Overcast
12:30 AM 68.7 °F 66.4 °F 92% 30.11 in 10.0 mi SE 6.9 mph - N/A   Overcast
12:55 AM 68.9 °F 66.0 °F 90% 30.11 in 10.0 mi SE 8.1 mph - N/A   Overcast
1:15 AM 69.3 °F 64.9 °F 86% 30.10 in 10.0 mi SE 11.5 mph 16.1 mph N/A   Overcast
1:35 AM 69.4 °F 64.0 °F 83% 30.10 in 10.0 mi SE 10.4 mph - N/A   Overcast
1:55 AM 69.1 °F 64.0 °F 84% 30.11 in 10.0 mi SE 10.4 mph - N/A   Overcast
2:15 AM 68.9 °F 63.9 °F 84% 30.11 in 10.0 mi SE 9.2 mph - N/A   Overcast
2:35 AM 68.5 °F 63.7 °F 84% 30.11 in 10.0 mi ESE 9.2 mph - N/A   Overcast
2:55 AM 68.0 °F 63.7 °F 86% 30.10 in 10.0 mi ESE 9.2 mph 16.1 mph N/A   Overcast
3:10 AM 68.0 °F 63.9 °F 87% 30.09 in 10.0 mi SE 10.4 mph - N/A   Overcast
3:35 AM 68.0 °F 63.7 °F 86% 30.09 in 10.0 mi SE 12.7 mph - N/A   Overcast
3:55 AM 67.6 °F 63.7 °F 87% 30.10 in 10.0 mi SE 12.7 mph 17.3 mph N/A   Overcast
4:15 AM 67.3 °F 64.0 °F 89% 30.10 in 10.0 mi SSE 8.1 mph - N/A   Overcast
4:40 AM 67.1 °F 64.0 °F 90% 30.10 in 10.0 mi SE 9.2 mph - N/A   Overcast
5:15 AM 67.1 °F 64.4 °F 91% 30.09 in 10.0 mi SE 9.2 mph - N/A   Overcast
5:35 AM 66.7 °F 64.4 °F 92% 30.09 in 10.0 mi SE 8.1 mph - N/A   Overcast
5:55 AM 66.6 °F 64.4 °F 93% 30.08 in 10.0 mi SE 6.9 mph - N/A   Overcast
6:15 AM 66.4 °F 64.4 °F 93% 30.08 in 10.0 mi SE 9.2 mph - N/A   Overcast
6:30 AM 66.6 °F 64.6 °F 93% 30.08 in 10.0 mi SE 8.1 mph - N/A   Overcast
6:55 AM 66.4 °F 64.6 °F 94% 30.08 in 10.0 mi SE 10.4 mph - N/A   Overcast
7:20 AM 66.2 °F 64.6 °F 94% 30.08 in 10.0 mi SE 10.4 mph - N/A   Overcast
7:30 AM 66.2 °F 64.6 °F 94% 30.08 in 10.0 mi ESE 11.5 mph - N/A   Overcast
7:55 AM 66.4 °F 64.8 °F 95% 30.08 in 10.0 mi SE 11.5 mph - N/A   Overcast
8:15 AM 66.7 °F 64.8 °F 93% 30.08 in 10.0 mi SE 12.7 mph - N/A   Overcast
8:30 AM 67.1 °F 65.1 °F 93% 30.08 in 10.0 mi SE 10.4 mph - N/A   Overcast
8:55 AM 67.5 °F 65.3 °F 93% 30.07 in 10.0 mi SE 11.5 mph 19.6 mph N/A   Overcast
9:20 AM 67.5 °F 65.3 °F 93% 30.07 in 10.0 mi SE 12.7 mph 19.6 mph N/A   Overcast
9:50 AM 67.6 °F 65.3 °F 92% 30.06 in 10.0 mi SE 10.4 mph 20.7 mph N/A   Overcast
10:15 AM 68.0 °F 65.5 °F 92% 30.06 in 10.0 mi SE 12.7 mph 17.3 mph N/A   Overcast
10:35 AM 68.0 °F 65.5 °F 92% 30.06 in 10.0 mi SE 12.7 mph 21.9 mph N/A   Overcast
11:00 AM 68.5 °F 66.2 °F 92% 30.05 in 7.0 mi SE 11.5 mph 19.6 mph N/A Rain Light Rain
11:15 AM 68.5 °F 66.6 °F 93% 30.04 in 10.0 mi SE 11.5 mph - N/A   Light Drizzle
11:35 AM 68.9 °F 66.6 °F 92% 30.05 in 10.0 mi SE 15.0 mph 19.6 mph N/A   Overcast
12:00 PM 68.9 °F 66.2 °F 91% 30.04 in 10.0 mi SE 15.0 mph 18.4 mph N/A   Overcast
12:15 PM 69.3 °F 66.6 °F 91% 30.05 in 10.0 mi SE 13.8 mph 19.6 mph N/A   Overcast
12:35 PM 69.8 °F 66.6 °F 89% 30.05 in 10.0 mi SE 12.7 mph - N/A   Overcast
12:55 PM 69.8 °F 66.4 °F 89% 30.05 in 10.0 mi SE 17.3 mph 21.9 mph N/A   Overcast
1:15 PM 68.9 °F 65.8 °F 90% 30.04 in 10.0 mi SSE 15.0 mph 21.9 mph N/A   Overcast
1:35 PM 68.2 °F 66.2 °F 93% 30.04 in 10.0 mi SE 12.7 mph 18.4 mph N/A   Light Drizzle
1:50 PM 68.0 °F 66.2 °F 94% 30.04 in 7.0 mi SE 15.0 mph 20.7 mph N/A Rain Light Rain
2:15 PM 67.5 °F 66.2 °F 96% 30.02 in 7.0 mi SE 16.1 mph 23.0 mph 0.01 in Rain Light Rain
2:35 PM 67.6 °F 65.8 °F 94% 30.02 in 7.0 mi SE 16.1 mph 27.6 mph 0.01 in Rain Light Rain
2:55 PM 68.2 °F 66.4 °F 94% 30.02 in 7.0 mi SE 15.0 mph 20.7 mph 0.02 in Rain Light Rain
3:15 PM 68.2 °F 66.2 °F 93% 30.02 in 7.0 mi SE 12.7 mph 18.4 mph N/A Rain Light Rain
3:35 PM 68.0 °F 66.2 °F 94% 30.03 in 4.0 mi SE 9.2 mph 19.6 mph 0.06 in Rain Heavy Rain
3:55 PM 67.6 °F 66.6 °F 96% 30.03 in 3.0 mi SE 9.2 mph - 0.16 in Rain Heavy Rain
4:15 PM 67.8 °F 66.2 °F 95% 30.02 in 5.0 mi SE 12.7 mph 19.6 mph 0.03 in Rain Light Rain
4:30 PM 67.6 °F 66.0 °F 95% 30.03 in 7.0 mi SE 15.0 mph 19.6 mph 0.04 in Rain Light Rain
4:55 PM 67.6 °F 66.4 °F 96% 30.03 in 10.0 mi SE 12.7 mph 18.4 mph 0.05 in Rain Light Rain
5:15 PM 67.5 °F 66.4 °F 96% 30.02 in 10.0 mi SSE 11.5 mph - N/A   Overcast
5:35 PM 67.5 °F 66.2 °F 96% 30.02 in 10.0 mi SSE 8.1 mph - N/A Rain Rain
5:55 PM 67.3 °F 66.2 °F 96% 30.02 in 7.0 mi SE 11.5 mph 17.3 mph N/A Rain Light Rain
6:15 PM 67.5 °F 66.4 °F 96% 30.01 in 10.0 mi SE 9.2 mph 17.3 mph N/A   Light Drizzle
6:55 PM 67.3 °F 66.2 °F 96% 30.00 in 10.0 mi SE 8.1 mph - N/A   Overcast
7:15 PM 67.3 °F 66.0 °F 96% 30.00 in 10.0 mi SE 9.2 mph - N/A   Overcast
7:35 PM 67.3 °F 66.0 °F 96% 30.01 in 7.0 mi SSE 9.2 mph - N/A   Overcast
7:55 PM 66.7 °F 66.2 °F 98% 30.01 in 1.5 mi SE 10.4 mph - N/A Rain Rain
8:10 PM 66.6 °F 66.2 °F 99% 30.02 in 2.0 mi SE 8.1 mph - N/A   Light Drizzle
8:35 PM 66.7 °F 66.2 °F 98% 30.02 in 4.0 mi SSE 10.4 mph - N/A   Drizzle
8:55 PM 66.7 °F 66.2 °F 98% 30.03 in 4.0 mi SE 6.9 mph - N/A Rain Light Rain
9:10 PM 66.7 °F 66.2 °F 98% 30.03 in 5.0 mi SSE 10.4 mph - N/A   Overcast
9:35 PM 66.7 °F 66.2 °F 98% 30.02 in 5.0 mi SSE 5.8 mph - N/A   Overcast
9:55 PM 66.7 °F 66.2 °F 98% 30.02 in 4.0 mi SSE 8.1 mph - N/A Rain Rain
10:15 PM 66.7 °F 66.2 °F 98% 30.01 in 4.0 mi SE 9.2 mph - N/A   Light Drizzle
10:35 PM 66.7 °F 66.2 °F 98% 30.01 in 5.0 mi SSE 9.2 mph - N/A Rain Light Rain
10:55 PM 66.6 °F 65.8 °F 98% 30.00 in 5.0 mi SSE 10.4 mph 16.1 mph N/A   Overcast
11:20 PM 66.4 °F 65.7 °F 98% 30.00 in 7.0 mi SE 9.2 mph - N/A   Overcast
11:35 PM 66.4 °F 65.5 °F 97% 29.99 in 7.0 mi SE 9.2 mph - N/A   Overcast
11:55 PM 66.2 °F 65.5 °F 98% 29.97 in 4.0 mi SE 9.2 mph - N/A   Overcast